Simultaneous Nadir Overpasses (SNOs) Predictions

Prediction of SNOs between GOES-16 and TERRA Satellite Orbit:

Table of predicted SNOs for the next 14.0 days since TLE Epoch: 6/24/2023
Index Date Time (GOES-16) GOES-16 Lat,Lon TERRA Lat,Lon Distance(km) Time Diff (sec)
1 06/24/2023 14:54:50 -0.00, -75.20 -0.49, -72.80 272.69 80
2 06/25/2023 03:17:49 0.00, -75.20 -0.56, -77.73 288.98 80
3 06/27/2023 02:58:49 0.01, -75.21 0.32, -73.79 161.75 80
4 06/27/2023 15:21:38 -0.00, -75.22 0.74, -78.69 394.58 80
5 06/29/2023 15:02:36 -0.00, -75.24 -0.11, -74.74 56.63 80
6 07/02/2023 03:09:13 0.00, -75.25 -0.11, -75.72 53.35 80
7 07/04/2023 02:50:10 0.01, -75.27 0.73, -71.77 398.10 80
8 07/04/2023 15:13:01 -0.01, -75.28 0.27, -76.67 158.12 80
9 07/06/2023 14:53:58 -0.02, -75.31 -0.58, -72.72 294.21 80
10 07/07/2023 03:16:57 0.02, -75.31 -0.47, -77.65 266.37 80
